Tracking 35331 objects as of 17-Sep-2026
HD Live streaming from Space Station
objects crossing your sky now

FLOCK 3K 4


FLOCK 3K 4 is no longer on orbit
FLOCK 3K 4 is classified as:


NORAD ID: 43893
Int'l Code: 2018-111T
Launch date: December 27, 2018
Source: United States (US)
Launch site: VOSTOCHNY COSMODROME (VOSTO)
Decay date: 2022-12-29
Your satellite tracking list
Your tracking list is empty




NASA's NSSDC Master Catalog

Two Line Element Set (TLE):
1 43893U 18111T   22363.37069674  .16252236  24219-5  46043-3 0  9997
2 43893  97.1151 254.8655 0004027 264.7410  95.3434 16.45365137223887
Source of the keplerian elements: AFSPC